Preview of NWS' New Version of Forecast
This preview is not operational and should not be used for support decisions.

Regional Weather Roundup (RWR)

Issued by National Weather Service (NWS)

                            
000
ASUS43 KDTX 241910
RWRMI 
MICHIGAN HOURLY REGIONAL WEATHER ROUNDUP
NATIONAL WEATHER SERVICE DETROIT/PONTIAC MI
300 PM EDT SUN MAR 24 2019

NOTE: "FAIR" INDICATES FEW OR NO CLOUDS BELOW 12,000 FEET WITH NO
SIGNIFICANT WEATHER AND/OR OBSTRUCTION TO VISIBILITY.

MIZ047>049-052>055-059>063-066>070-074>076-081>083-242000-
SOUTHEAST LOWER MICHIGAN
  
CITY           SKY/WX    TMP DP  RH WIND       PRES   REMARKS
ADRIAN         CLOUDY    46  29  51 W6        30.11F                  
ALMA           FAIR      55  28  35 W13       30.06F                  
ANN ARBOR      FAIR      51  30  44 S10       30.07F                  
BAD AXE        FAIR      49  32  51 W8        30.04F                  
CARO           FAIR      53  33  46 W13       30.04F                  
DETROIT CITY   FAIR      55  26  32 S13       30.06F                  
DETROIT        CLOUDY    53  25  33 S13       30.08F                  
FLINT          FAIR      55  30  38 W14       30.06F                  
GROSSE ILE     CLOUDY    47  33  59 SW6       30.07F                  
HILLSDALE      CLOUDY    48  26  42 SW6       30.09F                  
HOWELL         FAIR      55  25  31 W7        30.05F                  

CITY           SKY/WX    TMP DP  RH WIND       PRES   REMARKS
JACKSON        CLOUDY    54  29  38 SW12      30.07F                  
LAMBERTVILLE   CLOUDY    48  32  53 W7        30.10F                  
LANSING        PTSUNNY   54  30  40 W9        30.07F                  
LAPEER         FAIR      54  30  40 W7        30.05F                  
MASON          FAIR      56  28  34 SW8       30.06F                  
PONTIAC        CLOUDY    55  28  35 W8        30.04F                  
PORT HOPE        N/A     42  32  67 NW7       30.04F                  
PORT HURON     FAIR      54  25  32 SW7       30.06F                  
TRI CITIES     FAIR      52  33  48 W13       30.06F                  
MIDLAND        FAIR      53  33  45 NW10      30.05F                  
TROY           FAIR      57  19  23 SW8G18    30.07F                  
SAGINAW HB     FAIR      55  34  44 W14G20    30.04F                  
$$
MIZ043>046-050>051-056>058-064>065-071>073-077>080-242000-
SOUTHWEST LOWER MICHIGAN
  
CITY           SKY/WX    TMP DP  RH WIND       PRES   REMARKS
BATTLE CREEK   CLOUDY    52  28  39 S10       30.08F                  
BENTON HARBOR  CLOUDY    50  38  63 W7        30.09F                  
BIG RAPIDS     FAIR      49  32  51 W6        30.06F                  
COLDWATER      CLOUDY    49  33  53 S5        30.09F                  
FREMONT        FAIR      52  30  43 W5        30.06F                  
HOLLAND        CLOUDY    49  30  48 W7        30.08F                  
GRAND RAPIDS   CLOUDY    54  31  41 W10       30.06F                  
IONIA          FAIR      54  25  32 SW9       30.05F                  
KALAMAZOO      CLOUDY    53  30  41 S9        30.09F                  
LUDINGTON      FAIR      43  32  63 N8        30.09F                  
MARSHALL       CLOUDY    52  28  40 SW10      30.08F                  
MOUNT PLEASANT FAIR      52  31  44 NW10      30.06S                  
MUSKEGON       CLOUDY    48  28  46 W7        30.09F                  
SOUTH HAVEN    CLOUDY    50  35  56 W5        30.09F                  
$$
MIZ016>042-242000-
NORTHERN LOWER MICHIGAN
  
CITY           SKY/WX    TMP DP  RH WIND       PRES   REMARKS
ALPENA         CLOUDY    34  28  79 NE15      30.11R WCI  24          
BEAVER ISLAND  CLOUDY    35  22  59 N14G22    30.15R WCI  26          
BELLAIRE       CLOUDY    42  29  61 W6        30.09S                  
CADILLAC       FAIR      51  29  43 W9G16     30.03F                  
CHARLEVOIX     CLOUDY    35  31  87 N12       30.14S WCI  26          
FRANKFORT      FAIR      41  29  61 N6        30.11F                  
GAYLORD        CLOUDY    40  25  55 VRB6      30.05S                  
HARBOR SPRINGS CLOUDY    35  28  78 NE12      30.12S WCI  26          
HOUGHTON LAKE  FAIR      51  26  37 W7        30.03F                  
MANISTEE       FAIR      42  32  67 NW13      30.09F                  
OSCODA         FAIR      41  30  65 E9        30.07S                  
PELLSTON       CLOUDY    34  26  72 NE10      30.14R WCI  26          
ROGERS CITY    FLURRIES  32  28  83 NE8       30.14S WCI  25          
TRAVERSE CITY  PTSUNNY   41  31  67 N14       30.09F                  
$$
MIZ007>008-015-242000-
EASTERN UPPER MICHIGAN
  
CITY           SKY/WX    TMP DP  RH WIND       PRES   REMARKS
KINROSS        CLOUDY    34  19  54 NE8       30.15R WCI  27          
MACKINAC ISLAN CLOUDY    34  24  67 CALM      30.13S                  
NEWBERRY       CLOUDY    31  17  56 N13       30.16S WCI  22          
S. S. MARIE    PTSUNNY   37  18  46 NE7       30.14S WCI  32          
MUNISING         N/A     27  19  72 N22       30.24S WCI  13          
$$
MIZ004>006-011>014-085-242000-
CENTRAL UPPER MICHIGAN
  
CITY           SKY/WX    TMP DP  RH WIND       PRES   REMARKS
MANISTIQUE     CLOUDY    32  14  47 N13G21    30.18R WCI  22          
ESCANABA       CLOUDY    33  19  56 N12G18    30.19S WCI  24          
MENOMINEE      CLOUDY    36  24  62 N9        30.18R WCI  29          
SAWYER-GWINN   PTSUNNY   27  18  69 N21       30.21R WCI  13          
$$
MIZ001>003-009>011-084-242000-
WESTERN UPPER MICHIGAN
  
CITY           SKY/WX    TMP DP  RH WIND       PRES   REMARKS
IRON MOUNTAIN  CLOUDY    32  22  66 N13       30.18R WCI  22          
HOUGHTON       FAIR      27   8  44 NE10      30.28R WCI  17          
COPPER HARBOR    N/A     24  13  62 E10G22    30.33S WCI  14          
IRONWOOD       CLOUDY    28  18  66 N14       30.24R WCI  17          
$$

ABBREVIATIONS USED IN REMARKS
   TC - TEMPERATURE IN CELSIUS
  WCI - WIND CHILL INDEX
   HX - HEAT INDEX
  VSB - VISIBILITY